RH
37 36 41 39 37 35 34 33 32 29 28 26 20 17 20 26 25 25 25 25 23 19 15 15 20 30 30 25 31 29 26 24 23 21 16 14 13 13 14 21 19 20 17
39 39 44 41 39 37 35 34 33 31 31 29 23 23 23 26 26 26 25 23 18 14 12 13 17 24 30 29 29 26 22 21 21 18 17 15 15 15 16 23 23 20 17
41 41 44 43 37 36 37 35 34 31 30 27 31 41 39 34 30 29 22 18 14 14 13 13 14 16 21 25 27 25 23 21 18 16 16 17 16 16 16 17 22 18 17
42 40 42 41 38 37 37 38 36 32 29 26 30 38 38 40 36 25 20 19 16 13 13 13 13 13 14 18 19 18 18 16 15 14 14 14 15 14 15 20 19 19 18
45 43 45 45 40 39 39 40 38 34 32 28 26 32 34 40 36 34 30 24 20 17 15 14 13 14 15 15 15 15 16 16 15 15 14 12 11 10 11 13 19 24 24
58 50 46 49 45 42 42 43 41 37 35 31 31 31 38 38 41 40 39 35 31 28 24 23 21 20 18 18 17 17 22 19 18 19 20 22 22 21 18 17 17 22 22
48 47 47 47 48 45 44 46 46 43 39 33 33 36 37 40 40 38 42 37 36 33 31 30 30 30 31 32 33 34 34 34 33 34 34 34 33 32 30 28 26 24 27
46 44 43 44 48 48 47 47 47 48 44 38 35 36 38 39 39 42 39 31 31 29 27 26 28 30 31 32 33 33 33 34 34 34 34 33 33 33 34 35 34 33 31
46 46 44 48 49 50 48 48 50 50 48 43 37 37 38 38 39 42 36 33 34 31 32 36 37 36 36 35 35 35 36 35 36 36 35 34 34 33 33 34 35 39 38
49 50 50 49 49 53 52 49 51 51 53 49 44 38 35 36 37 38 35 35 33 36 38 38 39 42 43 44 43 41 40 37 35 32 33 32 31 32 35 39 42 41 49
49 52 58 56 54 56 54 49 51 52 55 53 47 43 37 35 37 37 35 35 37 39 41 41 42 44 44 42 39 39 37 34 30 29 28 27 28 30 32 36 38 41 44
48 53 57 61 58 58 56 53 50 51 58 57 52 45 40 37 37 37 37 39 42 42 42 45 44 42 39 40 38 37 37 33 29 28 28 28 28 30 32 33 33 33 35
49 51 54 61 60 61 59 55 56 52 54 58 58 49 44 41 41 41 43 44 46 44 46 48 46 43 42 41 38 35 32 29 29 30 29 26 24 24 26 28 27 27 27
46 49 53 53 58 62 58 59 56 55 58 60 60 55 51 48 47 47 49 48 47 46 46 46 46 44 42 38 35 32 31 31 28 24 19 17 17 18 21 23 22 22 25
38 46 49 52 56 58 60 57 57 57 58 66 63 62 58 55 52 52 53 51 53 49 47 48 45 39 34 33 33 31 28 24 19 17 15 15 17 18 20 21 22 25 26
37 36 40 43 46 47 50 54 57 59 60 67 70 69 64 62 57 56 55 55 50 48 49 45 34 33 34 32 29 24 20 18 17 16 16 18 20 21 22 24 25 26 28
38 38 37 35 37 43 47 52 56 58 63 66 73 76 70 66 63 59 56 54 51 50 40 35 36 35 33 28 24 20 18 14 15 16 17 19 21 23 24 25 25 25 26
41 39 37 36 36 37 43 50 54 58 62 67 74 77 73 69 64 59 56 54 52 39 34 35 34 34 29 23 19 16 13 14 16 18 21 22 22 21 20 19 18 17 17
43 41 39 36 36 39 40 45 53 59 64 69 70 75 74 69 65 59 57 51 39 35 36 33 31 28 23 19 16 14 16 18 19 22 24 23 21 19 18 17 17 18 18
39 42 41 39 39 39 42 46 50 57 61 64 70 77 74 69 62 57 50 39 37 37 34 31 26 23 20 17 15 18 20 20 21 23 24 22 20 21 21 20 19 19 19
37 41 43 42 42 41 41 47 49 51 57 62 69 75 74 69 62 49 41 39 41 41 37 32 27 23 19 16 18 21 21 21 22 23 21 22 21 21 22 21 20 21 21
36 41 42 45 42 42 44 49 52 51 55 62 67 72 72 67 56 42 41 44 43 41 39 36 32 26 20 19 21 22 23 24 25 24 23 23 22 22 23 23 23 23 23
37 39 42 44 44 46 48 51 59 58 59 58 65 69 66 60 46 43 46 46 45 43 42 40 34 28 23 22 23 25 25 26 25 24 25 24 24 24 25 25 25 25 23
36 40 42 45 47 49 54 53 57 59 56 55 60 64 62 49 46 47 49 50 51 49 48 45 38 32 24 24 25 26 27 26 27 25 24 24 24 25 26 26 25 23 20
38 43 44 48 51 53 57 56 57 62 60 55 57 58 47 45 47 50 53 54 54 52 50 48 45 35 26 23 25 26 27 27 27 26 26 25 27 26 26 25 23 20 17
41 45 46 49 53 55 59 56 59 59 59 56 57 49 43 45 49 52 54 56 56 55 51 48 47 40 28 24 26 26 26 27 27 27 30 31 29 27 25 23 21 18 17